User: anonymous   Login
Location: Caltech
(34.1382°N, 118.1253°W)
Time: 06:12:56
(UTC-07:00)
Language:

SEDSat Delta rocket - Orbit

View from above orbital plane
View from above orbital plane
View from above satellite
View from above satellite

Ground track
Ground track

The orbit data is extracted from the following two-line orbital elements,

1 25510U 98061C   16178.04046797  .00000332  00000-0  46648-4 0  9997
2 25510  31.4355  22.6887 0328621 163.1484 331.7585 14.37047276926042
Epoch (UTC): 26 June 2016 00:58:16
Eccentricity: 0.0328621
inclination: 31.4355°
perigee height: 533 km
apogee height: 1003 km
right ascension of ascending node: 22.6887°
argument of perigee: 163.1484°
revolutions per day: 14.37047276
mean anomaly at epoch: 331.7585°
orbit number at epoch: 92604

The dashed part of the orbit path shows where the satellite is in the earth's shadow,  

DLR